Flag for Canada Weather past 2 weeks in Steinbach, Manitoba, Canada

Now
-3 °F

Frigid.


Feels Like: -21 °F
Forecast: N/A
Wind: 12 mph from Southwest

Location: Winnipeg The Forks

Current Time: Feb 1, 2015 at 4:55:48 PM

Latest Report: Feb 1, 2015 at 4:00 PM


Visibility: N/A

Pressure: 30.51 "Hg

Humidity: 52%

Dew point: -17 °F

Location of SteinbachLocation

Historic Weather in Steinbach — Graph

°F

Steinbach temperature yesterday

Maximum temperature yesterday: 7 °F (at 12:00 AM)
Minimum temperature yesterday: -13 °F (at 10:00 PM)
Average temperature yesterday: -7 °F

Past Weeks' High & Low Weather Summary

 TemperatureHumidityPressure
High40 °F (Jan 23, 3:00 PM)100% (Jan 20, 2:00 PM)30.72 "Hg (Jan 20, 2:00 PM)
Low-16 °F (Feb 1, 8:00 AM)49% (Feb 1, 1:00 PM)29.51 "Hg (Jan 17, 4:00 PM)
Average18 °F78%30.08 "Hg
* Reported Jan 17 4:00 PM — Feb 1 4:00 PM, Steinbach, Weather by CustomWeather, © 2014

Note: Actual official high and low records may vary slightly from our data, if they occured in-between our weather recording intervals... More about our weather records

Advertising

Steinbach weather history for previous 24 hours

 ConditionsComfort  
Time TempWeatherWind HumidityBarometerVisibility
4:00 PM
Feb 1
-3 °FFrigid.12 mph52%30.51 "HgN/A
3:00 PM-3 °FFrigid.12 mph52%30.53 "HgN/A
2:00 PM-4 °FFrigid.10 mph50%30.56 "HgN/A
1:00 PM-6 °FFrigid.5 mph49%30.59 "HgN/A
12:00 PM-8 °FFrigid.6 mph57%30.64 "HgN/A
11:00 AM-11 °FExtremely cold.5 mph59%30.67 "HgN/A
10:00 AM-10 °FExtremely cold.5 mph57%30.67 "HgN/A
9:00 AM-14 °FExtremely cold.2 mph69%30.68 "HgN/A
8:00 AM-16 °FExtremely cold.3 mph75%30.68 "HgN/A
7:00 AM-14 °FExtremely cold.6 mph61%30.69 "HgN/A
6:00 AM-15 °FExtremely cold.5 mph66%30.70 "HgN/A
5:00 AM-15 °FExtremely cold.7 mph72%30.70 "HgN/A
4:00 AM-15 °FExtremely cold.3 mph72%30.70 "HgN/A
3:00 AM-14 °FExtremely cold.8 mph64%30.71 "HgN/A
2:00 AM-13 °FExtremely cold.8 mph62%30.72 "HgN/A
1:00 AM-12 °FExtremely cold.9 mph57%30.71 "HgN/A
12:00 AM-13 °FExtremely cold.8 mph56%30.71 "HgN/A
11:00 PM
Jan 31
-13 °FExtremely cold.8 mph57%30.69 "HgN/A
10:00 PM-13 °FExtremely cold.10 mph57%30.69 "HgN/A
9:00 PM-12 °FExtremely cold.9 mph55%30.68 "HgN/A
8:00 PM-12 °FExtremely cold.9 mph63%30.68 "HgN/A
7:00 PM-12 °FExtremely cold.10 mph62%30.68 "HgN/A
6:00 PM-11 °FExtremely cold.13 mph57%30.67 "HgN/A
5:00 PMN/A14 mphN/A30.66 "HgN/A
4:00 PM-9 °FFrigid.15 mph53%30.65 "HgN/A
Weather by CustomWeather, © 2014

See weather overviewHow to use our weather pages